Location: Dötzum
(52.0808°N, 9.8063°E)
Time: 06:24:00
(UTC+00:00)

MOS 1 Rocket - Pass Details

Date: 27 May 2022
Orbit: 615 x 828 km, 97.5° (Epoch: 26 June)

Event Time Altitude Azimuth Distance (km) Brightness Sun altitude
Exits shadow 01:33:17 10° 177° (S) 1,994 5.2 -10.9°
Reaches altitude 10° 01:33:20 10° 177° (S) 1,974 5.2 -10.9°
Maximum altitude 01:37:34 64° 259° (WSW) 691 3.1 -10.6°
Drops below altitude 10° 01:41:54 10° 341° (NNW) 2,018 6.2 -10.2°
Sets 01:44:09 0° 345° (NNW) 2,950 7.2 -10.0°
